This is the latest recevied weather packets stored in our database for station/object K5NAN. If no packets are shown the sender has not sent any weather packets the latest 10 day(s).
| Time | Temp. | Humidity | Pressure | Rain* | Wind** | Luminosity | Snow |
|---|---|---|---|---|---|---|---|
| 1777328576 | 31.11° C | 63% | 1006.2 hPa | 0 mm | - | 337 W/m² | - |
| 1777328274 | 31.11° C | 61% | 1006.3 hPa | 0 mm | - | 191 W/m² | - |
| 1777327972 | 30.56° C | 61% | 1006.3 hPa | 0 mm | - | 361 W/m² | - |
| 1777327670 | 30.56° C | 62% | 1006.2 hPa | 0 mm | - | 243 W/m² | - |
| 1777327366 | 30.56° C | 63% | 1006.3 hPa | 0 mm | - | 328 W/m² | - |
| 1777327064 | 30.56° C | 64% | 1006.3 hPa | 0 mm | - | 193 W/m² | - |
| 1777326761 | 30.56° C | 64% | 1006.2 hPa | 0 mm | - | 202 W/m² | - |
| 1777326457 | 30.56° C | 63% | 1006.4 hPa | 0 mm | - | 237 W/m² | - |
| 1777326156 | 30.56° C | 62% | 1006.4 hPa | 0 mm | - | 224 W/m² | - |
| 1777325853 | 30.56° C | 64% | 1006.3 hPa | 0 mm | - | 313 W/m² | - |
| 1777325552 | 31.11° C | 63% | 1006.3 hPa | 0 mm | - | 177 W/m² | - |
| 1777325249 | 31.67° C | 60% | 1006.4 hPa | 0 mm | - | 204 W/m² | - |
| 1777324945 | 31.67° C | 59% | 1006.3 hPa | 0 mm | - | 465 W/m² | - |
| 1777324642 | 31.67° C | 60% | 1006.4 hPa | 0 mm | - | 561 W/m² | - |
| 1777324340 | 31.11° C | 61% | 1006.2 hPa | 0 mm | - | 611 W/m² | - |
| 1777324038 | 31.67° C | 59% | 1006.2 hPa | 0 mm | - | 255 W/m² | - |
| 1777323735 | 31.11° C | 60% | 1006.5 hPa | 0 mm | - | 615 W/m² | - |
| 1777323431 | 31.67° C | 59% | 1006.3 hPa | 0 mm | - | 605 W/m² | - |
| 1777323129 | 31.67° C | 61% | 1006.4 hPa | 0 mm | - | 641 W/m² | - |
| 1777322827 | 31.11° C | 60% | 1006.7 hPa | 0 mm | - | 638 W/m² | - |
| 1777322525 | 31.11° C | 60% | 1006.6 hPa | 0 mm | - | 656 W/m² | - |
| 1777322222 | 31.67° C | 58% | 1006.6 hPa | 0 mm | - | 204 W/m² | - |
| 1777321919 | 31.67° C | 54% | 1006.6 hPa | 0 mm | - | 679 W/m² | - |
| 1777321615 | 31.11° C | 59% | 1006.5 hPa | 0 mm | - | 716 W/m² | - |
| 1777321312 | 31.67° C | 59% | 1006.7 hPa | 0 mm | - | 213 W/m² | - |
* Rain latest hour (hover to see other rain measurements)
** Current wind speed in m/s (hover to see current wind gust speed)